This is the latest recevied weather packets stored in our database for station/object DL9GJ-6. If no packets are shown the sender has not sent any weather packets the latest 10 day(s).
| Time | Temp. | Humidity | Pressure | Rain* | Wind** | Luminosity | Snow |
|---|---|---|---|---|---|---|---|
| 1777991542 | 16.67° C | 72% | 1006.3 hPa | 0 mm | - | 241 W/m² | - |
| 1777991181 | 16.67° C | 72% | 1006.2 hPa | 0 mm | - | 262 W/m² | - |
| 1777990821 | 16.67° C | 72% | 1006.3 hPa | 0 mm | - | 213 W/m² | - |
| 1777990462 | 16.67° C | 72% | 1006.4 hPa | 0 mm | - | 117 W/m² | - |
| 1777989741 | 16.67° C | 73% | 1006.3 hPa | 0 mm | - | 135 W/m² | - |
| 1777989729 | 16.67° C | 73% | 1006.3 hPa | 0 mm | - | 135 W/m² | - |
| 1777989382 | 16.67° C | 73% | 1006.3 hPa | 0 mm | - | 153 W/m² | - |
| 1777989022 | 17.22° C | 74% | 1006.2 hPa | 0 mm | - | 144 W/m² | - |
| 1777988661 | 17.22° C | 74% | 1006 hPa | 0 mm | - | 247 W/m² | - |
| 1777988302 | 17.22° C | 73% | 1006 hPa | 0 mm | - | 285 W/m² | - |
| 1777988291 | 17.22° C | 73% | 1006 hPa | 0 mm | - | 285 W/m² | - |
| 1777987941 | 17.22° C | 73% | 1006.3 hPa | 0 mm | - | 312 W/m² | - |
| 1777987929 | 17.22° C | 73% | 1006.3 hPa | 0 mm | - | 312 W/m² | - |
| 1777987581 | 17.22° C | 71% | 1006.4 hPa | 0 mm | - | 297 W/m² | - |
| 1777987221 | 17.22° C | 72% | 1006.5 hPa | 0 mm | - | 281 W/m² | - |
| 1777986862 | 17.22° C | 75% | 1006.7 hPa | 0.25 mm | - | 288 W/m² | - |
| 1777986854 | 17.22° C | 75% | 1006.7 hPa | 0.25 mm | - | 288 W/m² | - |
| 1777986502 | 17.22° C | 74% | 1006.8 hPa | 0.25 mm | - | 304 W/m² | - |
| 1777986489 | 17.22° C | 74% | 1006.8 hPa | 0.25 mm | - | 304 W/m² | - |
| 1777986141 | 16.67° C | 73% | 1006.9 hPa | 0.25 mm | - | 333 W/m² | - |
| 1777985782 | 16.67° C | 74% | 1006.9 hPa | 0.25 mm | - | 298 W/m² | - |
| 1777985421 | 16.67° C | 73% | 1006.9 hPa | 0.25 mm | - | 273 W/m² | - |
| 1777985409 | 16.67° C | 73% | 1006.9 hPa | 0.25 mm | - | 273 W/m² | - |
| 1777985062 | 16.67° C | 75% | 1006.9 hPa | 0.25 mm | - | 277 W/m² | - |
| 1777984701 | 16.67° C | 77% | 1006.9 hPa | 0.25 mm | - | 272 W/m² | - |
* Rain latest hour (hover to see other rain measurements)
** Current wind speed in m/s (hover to see current wind gust speed)